TimeCDT,TemperatureF,Dew PointF,Humidity,Sea Level PressureIn,VisibilityMPH,Wind Direction,Wind SpeedMPH,Gust SpeedMPH,PrecipitationIn,Events,Conditions,WindDirDegrees,DateUTC
12:15 AM,80.6,69.8,70,30.02,10.0,SSE,4.6,-,N/A,,Clear,150,2013-09-07 05:15:00
12:35 AM,80.6,69.8,70,30.02,10.0,SSE,3.5,-,N/A,,Clear,160,2013-09-07 05:35:00
12:55 AM,80.6,69.8,70,30.02,10.0,SSE,4.6,-,N/A,,Clear,160,2013-09-07 05:55:00
1:15 AM,78.8,71.6,78,30.01,10.0,SSW,3.5,-,N/A,,Clear,200,2013-09-07 06:15:00
1:35 AM,78.8,71.6,78,30.02,10.0,Calm,Calm,-,N/A,,Clear,0,2013-09-07 06:35:00
1:55 AM,78.8,69.8,74,30.01,10.0,Calm,Calm,-,N/A,,Clear,0,2013-09-07 06:55:00
2:15 AM,75.2,69.8,83,30.01,10.0,Calm,Calm,-,N/A,,Clear,0,2013-09-07 07:15:00
2:35 AM,75.2,71.6,89,30.01,10.0,Calm,Calm,-,N/A,,Clear,0,2013-09-07 07:35:00
2:55 AM,75.2,69.8,83,30.01,10.0,Calm,Calm,-,N/A,,Clear,0,2013-09-07 07:55:00
3:15 AM,75.2,69.8,83,30.01,10.0,Calm,Calm,-,N/A,,Clear,0,2013-09-07 08:15:00
3:35 AM,73.4,69.8,88,30.00,10.0,Calm,Calm,-,N/A,,Clear,0,2013-09-07 08:35:00
3:55 AM,75.2,69.8,83,30.01,10.0,SE,3.5,-,N/A,,Clear,140,2013-09-07 08:55:00
4:15 AM,75.2,71.6,89,30.01,10.0,Calm,Calm,-,N/A,,Clear,0,2013-09-07 09:15:00
4:35 AM,75.2,71.6,89,30.01,10.0,Calm,Calm,-,N/A,,Clear,0,2013-09-07 09:35:00
4:55 AM,75.2,71.6,89,30.02,10.0,Calm,Calm,-,N/A,,Clear,0,2013-09-07 09:55:00
5:15 AM,73.4,69.8,88,30.02,10.0,Calm,Calm,-,N/A,,Clear,0,2013-09-07 10:15:00
5:35 AM,73.4,71.6,94,30.01,10.0,Calm,Calm,-,N/A,,Clear,0,2013-09-07 10:35:00
5:55 AM,73.4,69.8,88,30.02,10.0,Calm,Calm,-,N/A,,Clear,0,2013-09-07 10:55:00
6:15 AM,71.6,69.8,94,30.02,10.0,Calm,Calm,-,N/A,,Clear,0,2013-09-07 11:15:00
6:35 AM,73.4,69.8,88,30.03,10.0,Calm,Calm,-,N/A,,Clear,0,2013-09-07 11:35:00
6:53 AM,73.4,69.8,88,30.03,10.0,Calm,Calm,-,N/A,,Clear,0,2013-09-07 11:53:00
6:55 AM,73.4,69.8,88,30.03,10.0,Calm,Calm,-,N/A,,Clear,0,2013-09-07 11:55:00
7:48 AM,73.4,71.6,94,30.04,10.0,Calm,Calm,-,N/A,,Clear,0,2013-09-07 12:48:00
8:46 AM,78.8,73.4,83,30.06,10.0,Calm,Calm,-,N/A,,Clear,0,2013-09-07 13:46:00
9:48 AM,82.4,73.4,74,30.06,10.0,Calm,Calm,-,N/A,,Partly Cloudy,0,2013-09-07 14:48:00
10:46 AM,84.2,71.6,66,30.06,10.0,South,4.6,-,N/A,,Scattered Clouds,180,2013-09-07 15:46:00
11:46 AM,87.8,69.8,55,30.06,10.0,East,3.5,-,N/A,,Scattered Clouds,90,2013-09-07 16:46:00
12:50 PM,91.4,68.0,46,30.03,10.0,South,4.6,-,N/A,,Scattered Clouds,190,2013-09-07 17:50:00
1:47 PM,91.4,66.2,43,30.00,10.0,SE,3.5,-,N/A,,Scattered Clouds,140,2013-09-07 18:47:00
2:48 PM,95.0,66.2,39,29.97,10.0,Variable,4.6,-,N/A,,Scattered Clouds,0,2013-09-07 19:48:00
3:46 PM,95.0,64.4,36,29.94,10.0,East,5.8,-,N/A,,Partly Cloudy,100,2013-09-07 20:46:00
4:46 PM,96.8,64.4,34,29.91,10.0,Variable,4.6,-,N/A,,Scattered Clouds,0,2013-09-07 21:46:00
5:47 PM,93.2,66.2,41,29.94,10.0,SSE,20.7,34.5,N/A,,Mostly Cloudy,150,2013-09-07 22:47:00
6:46 PM,82.4,69.8,66,29.99,10.0,SSE,13.8,21.9,N/A,,Mostly Cloudy,150,2013-09-07 23:46:00
7:47 PM,80.6,69.8,70,29.99,10.0,SSE,10.4,-,N/A,,Clear,150,2013-09-08 00:47:00
8:46 PM,78.8,69.8,74,29.97,10.0,South,4.6,-,N/A,,Clear,180,2013-09-08 01:46:00
9:47 PM,75.2,71.6,89,29.99,10.0,Calm,Calm,-,N/A,,Clear,0,2013-09-08 02:47:00
10:15 PM,77.0,71.6,83,29.99,10.0,SE,3.5,-,N/A,,Clear,130,2013-09-08 03:15:00
10:35 PM,77.0,71.6,83,29.99,10.0,SSE,3.5,-,N/A,,Clear,160,2013-09-08 03:35:00
10:55 PM,77.0,71.6,83,30.00,10.0,Calm,Calm,-,N/A,,Clear,0,2013-09-08 03:55:00
11:15 PM,75.2,71.6,89,30.00,10.0,Calm,Calm,-,N/A,,Clear,0,2013-09-08 04:15:00
11:35 PM,75.2,71.6,89,30.00,10.0,Calm,Calm,-,N/A,,Clear,0,2013-09-08 04:35:00
11:55 PM,75.2,71.6,89,29.99,10.0,SSW,5.8,-,N/A,,Clear,200,2013-09-08 04:55:00